Weather Roundup
Issued by NWS

Home | Current Version | Previous Version | Text Only | Print | Product List | Glossary On
Versions: 1 2 3 4 5 6 7 8 9 10 11 12 13 14 15 16 17 18 19 20 21 22 23 24 25 26 27 28 29 30 31 32 33 34 35 36 37 38 39 40 41 42 43 44 45 46 47 48 49 50
131
NZUS93 KARX 210510
HRRWXR

CURRENT HOURLY OBSERVATIONS ACROSS
MUCH OF THE UPPER MISSISSIPPI VALLEY
NATIONAL WEATHER SERVICE LA CROSSE WI
1200 AM CDT SAT APR 21 2018


...SOUTHEAST MINNESOTA...


CITY           SKY/WX    TMP DP  RH WIND       PRES   REMARKS
ROCHESTER      FAIR      37  23  56 NW6       30.42F WCI  32
ROCHESTER/MAYO FAIR      40  25  55 CALM      30.43F
WINONA         FAIR      36  32  87 CALM      30.42F
AUSTIN         FAIR      34  27  75 CALM      30.43S
ALBERT LEA     FAIR      36  27  69 CALM      30.42F
DODGE CENTER   FAIR      36  27  69 CALM      30.42F
PRESTON        FAIR      38  20  48 CALM      30.43S
OWATONNA       FAIR      36  30  80 CALM      30.43F
FARIBAULT      NOT AVBL
$$

...ELSEWHERE IN MINNESOTA...


CITY           SKY/WX    TMP DP  RH WIND       PRES   REMARKS
MINNEAPOLIS    CLOUDY    43  27  53 NW3       30.44F
INTNL FALLS    FAIR      31  26  82 CALM      30.35S
DULUTH         FAIR      41  20  43 W7        30.40S
RED WING       FAIR      34  25  69 S3        30.43F
REDWOOD FALLS  CLOUDY    37  30  75 E5        30.40F WCI  33
MANKATO        FAIR      36  28  73 NE6       30.42F WCI  31
WORTHINGTON    NOT AVBL
FAIRMONT       CLOUDY    35  29  78 E3        30.41F
$$

...SOUTHWEST WISCONSIN...


CITY           SKY/WX    TMP DP  RH WIND       PRES   REMARKS
LA CROSSE      FAIR      42  30  62 CALM      30.44S
PRAIRIE DU CHI FAIR      40  31  69 CALM      30.42F
BOSCOBEL       FAIR      35  30  82 CALM      30.44R
LONE ROCK      FAIR      36  32  85 CALM      30.43F
PLATTEVILLE    FAIR      42  29  60 E5        30.41S
FORT MC COY    FAIR      30  23  75 CALM      30.45S
CAMP DOUGLAS   FAIR      30  23  75 CALM      30.43S
MAUSTON-NEW LI FAIR      31  24  75 CALM      30.43S
VIROQUA        FAIR      42  26  52 NE5       30.42F
WIS DELLS      FAIR      33  22  65 CALM      30.43F
$$

...ELSEWHERE IN WISCONSIN...


CITY           SKY/WX    TMP DP  RH WIND       PRES   REMARKS
MILWAUKEE      FAIR      40  17  39 CALM      30.45S
MADISON        FAIR      33  26  75 CALM      30.44R
GREEN BAY      FAIR      32  25  75 CALM      30.44S
EAU CLAIRE     FAIR      34  22  61 CALM      30.43S
BLACK RVR FLS  FAIR      28  19  71 CALM      30.43F
MEDFORD        FAIR      31  21  65 CALM      30.42S
WAUSAU         FAIR      32  21  64 CALM      30.41S
WIS RAPIDS     FAIR      32  18  56 CALM      30.43F
MARSHFIELD     FAIR      37  19  48 N5        30.41S WCI  33
RICE LAKE      FAIR      31  26  80 CALM      30.45S
$$

...NORTHEAST IOWA...


CITY           SKY/WX    TMP DP  RH WIND       PRES   REMARKS
WATERLOO       FAIR      40  33  76 N5        30.41
DUBUQUE        FAIR      46  24  42 E5        30.41S
DECORAH        MOCLDY    39  27  60 CALM      30.41F
MASON CITY     CLOUDY    34  29  82 N5        30.43F WCI  30
CHARLES CITY   FAIR      37  27  65 NE6       30.43S WCI  33
OELWEIN        MOCLDY    41  36  81 NE7       30.42R
$$

...ELSEWHERE IN IOWA...


CITY           SKY/WX    TMP DP  RH WIND       PRES   REMARKS
DES MOINES     CLOUDY    52  25  35 E9        30.35F
IOWA CITY      FAIR      47  30  51 CALM      30.40F
FORT DODGE     CLOUDY    40  34  79 E10       30.38F WCI  33
MARSHALLTOWN   CLOUDY    43  37  79 NE10      30.38F
CEDAR RAPIDS   FAIR      49  23  36 E7        30.38F
$$

...NORTHERN ILLINOIS...


CITY           SKY/WX    TMP DP  RH WIND       PRES   REMARKS
CHICAGO-OHARE  MOCLDY    44  17  33 CALM      30.44R
CHICAGO-MIDWAY CLOUDY    45  19  35 E5        30.46R
MOLINE         FAIR      43  31  62 E3        30.40R
ROCKFORD       MOCLDY    44  18  35 SE5       30.45S
PEORIA         FAIR      50  25  37 E3        30.40S
$$

NOTE: "FAIR" INDICATES FEW OR NO CLOUDS BELOW 12,000 FEET WITH NO
SIGNIFICANT WEATHER AND/OR OBSTRUCTIONS TO VISIBILITY. WIND
SPEEDS ARE IN MILES-PER-HOUR.




USA.gov is the U.S. government's official web portal to all federal, state and local government web resources and services.